Météo par heure à Άλιμος

Ce jour, 13 Mai, Jeudi

Heure Température Précipitation Vent Pression Humidité
00:00 +19°C° 0 mm 2 m/s 753 mmHg 63%
01:00 +18°C° 0 mm 2 m/s 753 mmHg 65%
02:00 +18°C° 0 mm 3 m/s 752 mmHg 67%
03:00 +18°C° 0 mm 3 m/s 752 mmHg 68%
04:00 +18°C° 0 mm 3 m/s 752 mmHg 70%
05:00 +17°C° 0 mm 3 m/s 753 mmHg 71%
06:00 +19°C° 0 mm 3 m/s 753 mmHg 65%
07:00 +20°C° 0 mm 3 m/s 753 mmHg 60%
08:00 +21°C° 0 mm 3 m/s 753 mmHg 54%
09:00 +24°C° 0 mm 3 m/s 754 mmHg 50%
10:00 +25°C° 0 mm 3 m/s 754 mmHg 46%
11:00 +26°C° 0 mm 3 m/s 754 mmHg 43%
12:00 +26°C° 0 mm 4 m/s 754 mmHg 40%
13:00 +27°C° 0 mm 4 m/s 753 mmHg 38%
14:00 +27°C° 0 mm 5 m/s 753 mmHg 36%
15:00 +27°C° 0 mm 5 m/s 753 mmHg 38%
16:00 +26°C° 0 mm 4 m/s 753 mmHg 41%
17:00 +25°C° 0 mm 4 m/s 753 mmHg 44%
18:00 +23°C° 0 mm 4 m/s 754 mmHg 49%
19:00 +22°C° 0 mm 3 m/s 754 mmHg 54%
20:00 +21°C° 0 mm 3 m/s 754 mmHg 60%
21:00 +20°C° 0 mm 3 m/s 754 mmHg 61%
22:00 +20°C° 0 mm 3 m/s 754 mmHg 63%
23:00 +20°C° 0 mm 4 m/s 754 mmHg 65%

Demain, 14 Mai, Vendredi

Heure Température Précipitation Vent Pression Humidité
00:00 +19°C° 0 mm 4 m/s 754 mmHg 65%
01:00 +19°C° 0 mm 4 m/s 754 mmHg 65%
02:00 +18°C° 0 mm 4 m/s 754 mmHg 65%
03:00 +18°C° 0 mm 4 m/s 754 mmHg 65%
04:00 +18°C° 0 mm 4 m/s 755 mmHg 64%
05:00 +17°C° 0 mm 4 m/s 755 mmHg 64%
06:00 +19°C° 0 mm 4 m/s 755 mmHg 59%
07:00 +20°C° 0 mm 4 m/s 756 mmHg 53%
08:00 +21°C° 0 mm 4 m/s 756 mmHg 48%
09:00 +23°C° 0 mm 4 m/s 756 mmHg 43%
10:00 +25°C° 0 mm 4 m/s 757 mmHg 38%
11:00 +26°C° 0 mm 4 m/s 757 mmHg 33%
12:00 +27°C° 0 mm 4 m/s 757 mmHg 32%
13:00 +27°C° 0 mm 4 m/s 756 mmHg 31%
14:00 +28°C° 0 mm 4 m/s 756 mmHg 30%
15:00 +27°C° 0 mm 4 m/s 756 mmHg 33%
16:00 +27°C° 0 mm 4 m/s 756 mmHg 36%
17:00 +26°C° 0 mm 4 m/s 756 mmHg 38%
18:00 +25°C° 0 mm 4 m/s 756 mmHg 45%
19:00 +22°C° 0 mm 3 m/s 756 mmHg 51%
20:00 +21°C° 0 mm 3 m/s 756 mmHg 57%
21:00 +21°C° 0 mm 2 m/s 756 mmHg 59%
22:00 +20°C° 0 mm 2 m/s 756 mmHg 61%
23:00 +21°C° 0 mm 1 m/s 756 mmHg 63%

Après-demain, 15 Mai, Samedi

Heure Température Précipitation Vent Pression Humidité
00:00 +19°C° 0 mm 2 m/s 756 mmHg 63%
01:00 +19°C° 0 mm 2 m/s 756 mmHg 63%
02:00 +19°C° 0 mm 2 m/s 756 mmHg 63%
03:00 +18°C° 0 mm 2 m/s 756 mmHg 62%
04:00 +18°C° 0 mm 2 m/s 756 mmHg 62%
05:00 +18°C° 0 mm 2 m/s 755 mmHg 61%
06:00 +19°C° 0 mm 2 m/s 756 mmHg 55%
07:00 +21°C° 0 mm 2 m/s 756 mmHg 49%
08:00 +23°C° 0 mm 2 m/s 756 mmHg 44%
09:00 +24°C° 0 mm 2 m/s 756 mmHg 40%
10:00 +25°C° 0 mm 2 m/s 756 mmHg 36%
11:00 +26°C° 0 mm 3 m/s 755 mmHg 32%
12:00 +26°C° 0 mm 3 m/s 755 mmHg 33%
13:00 +26°C° 0 mm 3 m/s 755 mmHg 34%
14:00 +26°C° 0 mm 3 m/s 755 mmHg 35%
15:00 +26°C° 0 mm 3 m/s 754 mmHg 37%
16:00 +26°C° 0 mm 2 m/s 754 mmHg 39%
17:00 +25°C° 0 mm 2 m/s 754 mmHg 41%
18:00 +24°C° 0 mm 2 m/s 754 mmHg 48%
19:00 +23°C° 0 mm 2 m/s 754 mmHg 54%
20:00 +20°C° 0 mm 2 m/s 753 mmHg 60%
21:00 +20°C° 0 mm 2 m/s 754 mmHg 63%
22:00 +19°C° 0 mm 2 m/s 754 mmHg 65%
23:00 +19°C° 0 mm 2 m/s 754 mmHg 68%

16 Mai, Dimanche

Heure Température Précipitation Vent Pression Humidité
00:00 +18°C° 0 mm 2 m/s 754 mmHg 68%
01:00 +18°C° 0 mm 3 m/s 754 mmHg 68%
02:00 +18°C° 0 mm 3 m/s 753 mmHg 68%
03:00 +17°C° 0 mm 3 m/s 753 mmHg 69%
04:00 +17°C° 0 mm 3 m/s 753 mmHg 70%
05:00 +17°C° 0 mm 4 m/s 753 mmHg 72%
06:00 +18°C° 0 mm 3 m/s 753 mmHg 66%
07:00 +19°C° 0 mm 3 m/s 754 mmHg 61%
08:00 +21°C° 0 mm 3 m/s 754 mmHg 56%
09:00 +22°C° 0 mm 3 m/s 754 mmHg 51%
10:00 +24°C° 0 mm 3 m/s 754 mmHg 47%
11:00 +25°C° 0 mm 3 m/s 754 mmHg 42%
12:00 +25°C° 0 mm 3 m/s 754 mmHg 41%
13:00 +26°C° 0 mm 4 m/s 754 mmHg 40%
14:00 +26°C° 0 mm 4 m/s 753 mmHg 39%
15:00 +26°C° 0 mm 4 m/s 753 mmHg 40%
16:00 +25°C° 0 mm 4 m/s 753 mmHg 42%
17:00 +25°C° 0 mm 4 m/s 753 mmHg 44%
18:00 +23°C° 0 mm 4 m/s 753 mmHg 49%
19:00 +22°C° 0 mm 3 m/s 754 mmHg 54%
20:00 +21°C° 0 mm 2 m/s 754 mmHg 59%
21:00 +20°C° 0 mm 2 m/s 754 mmHg 61%
22:00 +20°C° 0 mm 2 m/s 754 mmHg 63%
23:00 +19°C° 0 mm 2 m/s 755 mmHg 65%

17 Mai, Lundi

Heure Température Précipitation Vent Pression Humidité
00:00 +19°C° 0 mm 2 m/s 754 mmHg 66%
01:00 +19°C° 0 mm 2 m/s 754 mmHg 67%
02:00 +19°C° 0 mm 2 m/s 754 mmHg 67%
03:00 +19°C° 0 mm 2 m/s 754 mmHg 68%
04:00 +18°C° 0 mm 2 m/s 754 mmHg 69%
05:00 +18°C° 0 mm 2 m/s 754 mmHg 70%
06:00 +20°C° 0 mm 2 m/s 755 mmHg 63%
07:00 +21°C° 0 mm 2 m/s 755 mmHg 57%
08:00 +24°C° 0 mm 2 m/s 755 mmHg 51%
09:00 +25°C° 0 mm 2 m/s 755 mmHg 47%
10:00 +26°C° 0 mm 2 m/s 755 mmHg 42%
11:00 +28°C° 0 mm 3 m/s 755 mmHg 38%
12:00 +28°C° 0 mm 3 m/s 755 mmHg 37%
13:00 +29°C° 0 mm 4 m/s 755 mmHg 36%
14:00 +29°C° 0 mm 5 m/s 755 mmHg 36%
15:00 +28°C° 0 mm 4 m/s 755 mmHg 38%
16:00 +28°C° 0 mm 4 m/s 755 mmHg 39%
17:00 +27°C° 0 mm 4 m/s 755 mmHg 41%
18:00 +26°C° 0 mm 3 m/s 755 mmHg 47%
19:00 +25°C° 0 mm 3 m/s 755 mmHg 52%
20:00 +22°C° 0 mm 3 m/s 755 mmHg 57%
21:00 +23°C° 0 mm 2 m/s 755 mmHg 59%
22:00 +23°C° 0 mm 2 m/s 755 mmHg 61%
23:00 +22°C° 0 mm 1 m/s 756 mmHg 63%

18 Mai, Mardi

Heure Température Précipitation Vent Pression Humidité
00:00 +22°C° 0 mm 1 m/s 755 mmHg 63%
01:00 +21°C° 0 mm 2 m/s 755 mmHg 63%
02:00 +21°C° 0 mm 2 m/s 755 mmHg 62%
03:00 +21°C° 0 mm 2 m/s 755 mmHg 61%
04:00 +21°C° 0 mm 2 m/s 755 mmHg 60%
05:00 +20°C° 0 mm 2 m/s 755 mmHg 59%
06:00 +23°C° 0 mm 2 m/s 755 mmHg 54%
07:00 +25°C° 0 mm 2 m/s 755 mmHg 48%
08:00 +26°C° 0 mm 1 m/s 755 mmHg 43%
09:00 +28°C° 0 mm 2 m/s 755 mmHg 40%
10:00 +29°C° 0 mm 2 m/s 755 mmHg 37%
11:00 +30°C° 0 mm 3 m/s 756 mmHg 34%
12:00 +30°C° 0 mm 4 m/s 755 mmHg 34%
13:00 +32°C° 0 mm 4 m/s 755 mmHg 34%
14:00 +32°C° 0 mm 5 m/s 754 mmHg 34%
15:00 +30°C° 0 mm 5 m/s 754 mmHg 36%
16:00 +29°C° 0 mm 4 m/s 754 mmHg 38%
17:00 +29°C° 0 mm 4 m/s 753 mmHg 40%
18:00 +27°C° 0 mm 3 m/s 753 mmHg 45%
19:00 +26°C° 0 mm 3 m/s 753 mmHg 51%
20:00 +25°C° 0 mm 3 m/s 752 mmHg 56%
21:00 +24°C° 0 mm 3 m/s 752 mmHg 58%
22:00 +24°C° 0 mm 3 m/s 752 mmHg 61%
23:00 +22°C° 0 mm 3 m/s 752 mmHg 63%
Voir plus

Nous avons besoin de votre consentement

Meteoprog et ses fournisseurs de services peuvent stocker et accéder à des données personnelles telles que des cookies, des identifiants d'appareils ou d'autres technologies similaires sur votre appareil et traiter ces données pour personnaliser le contenu et les publicités, ainsi que pour fournir des fonctionnalités de médias sociaux et analyser le trafic.

  • Stocker et/ou accéder à des informations sur votre appareil

    Des cookies, des identifiants d'appareils ou d'autres informations peuvent être stockés ou accessibles sur votre appareil aux fins indiquées ci-dessus.

  • Annonces et contenus personnalisés, mesure des annonces et des contenus, connaissance de l'audience et développement de produits

    Les annonces et le contenu peuvent être personnalisés en fonction d'un profil. D'autres données peuvent être ajoutées pour mieux personnaliser les annonces et le contenu. Les performances des publicités et du contenu peuvent être mesurées. Il est possible d'obtenir des informations sur le public qui a vu les publicités et le contenu. Ces données peuvent être utilisées pour développer ou améliorer l'expérience de l'utilisateur, les systèmes et les logiciels.

En cliquant sur "J'accepte", vous autorisez l'utilisation de cookies, des identifiants d'appareils, des balises web ou d'autres technologies similaires. Vos paramètres peuvent être modifiés dans le navigateur de votre appareil.

Dans certains cas, des intérêts légitimes peuvent être invoqués plutôt qu'un consentement. Vous pouvez en savoir plus à ce sujet dans notre Politique de confidentialité et de cookies.